[[{"header":{"parameterUnit":"m.s-1","parameterCategory":1,"la1":30.2991,"la2":30.254,"lo1":-89.0895,"lo2":-89.0444,"dy":0.0017,"dx":0.0017,"nx":28,"ny":28,"refTime":"2024-10-22T03:00:00:Z","depth":0,"parameterNumber":2,"parameterNumberName":"U-component_of_WINDS"},"data":[0,0,0,0,0,0,0,0,0,0,0,0,0,0,0,0,0,0,0,0,0,0,0,0,0,0,0,0,0,0,0,0,0,0,0,0,0,0,0,0,0,0,0,0,0,0,0,0,0,0,0,0,0,0,0,0,0,0,0.5765,0.5767,0,0.5894,0.5895,0.5897,0.5928,0.5927,0.5926,0.5925,0.6058,0.6063,0.6067,0,0,0,0,0,0,0,0,0,0,0,0,0,0.5547,0.555,0.5765,0.5767,0.5768,0.5893,0.5895,0.5897,0.5928,0.5927,0.5926,0.5925,0.6057,0.6062,0.6067,0,0,0,0,0,0,0,0,0,0,0,0,0,0.5655,0.5552,0.5765,0.5799,0.5803,0.5893,0.5895,0.5897,0.5928,0.5927,0.5925,0.5924,0.6055,0.6062,0.6068,0.6134,0,0,0.6088,0.6091,0,0,0,0,0,0,0,0,0.5649,0.5663,0.5792,0.5796,0.5801,0.5893,0.5867,0.5977,0.5928,0.5881,0.5925,0.5924,0.6005,0.6015,0.6042,0.614,0.6146,0.6089,0.6093,0.6095,0.6097,0,0,0,0,0,0,0,0.5641,0.5658,0.5816,0.5794,0.58,0.5807,0.5821,0.5888,0.5948,0.5885,0.5887,0.5902,0.6007,0.6036,0.6046,0.6148,0.6088,0.6094,0.6098,0.6101,0.6304,0.6306,0,0,0,0,0,0,0.5628,0.5651,0.5812,0.582,0.572,0.5812,0.5828,0.5865,0.5948,0.5959,0.5903,0.5903,0.6025,0.6038,0.605,0.6132,0.6095,0.6101,0.6105,0.6303,0.6305,0.6306,0,0,0,0,0,0,0.5623,0.5642,0.5807,0.5736,0.5758,0.5818,0.5859,0.5868,0.5897,0.5961,0.5972,0.5921,0.6025,0.6041,0.6112,0.6137,0.6104,0.611,0.6301,0.6303,0.6305,0.6295,0,0,0,0,0,0,0.5616,0.564,0.5666,0.5736,0.5761,0.5866,0.586,0.5872,0.5908,0.5909,0.5982,0.5992,0.6025,0.6102,0.6119,0.6145,0.6115,0.6299,0.6302,0.6305,0.6294,0.6297,0.6299,0,0,0,0,0,0.5608,0.5658,0.5667,0.5686,0.5795,0.5868,0.5882,0.5918,0.591,0.5936,0.5977,0.599,0.6131,0.6109,0.6128,0.6157,0.6298,0.6301,0.6304,0.6292,0.6296,0.6299,0,0,0,0,0,0,0.559,0.5668,0.5679,0.5753,0.5803,0.5873,0.5907,0.5922,0.5976,0.5975,0.6018,0.6034,0.6102,0.6137,0.6111,0.6224,0.6214,0.6222,0.6199,0.6203,0.6206,0.6196,0.6121,0,0,0,0,0,0.5594,0.5647,0.5713,0.5772,0.5797,0.5847,0.5881,0.5904,0.5958,0.598,0.6026,0.6078,0.6134,0.6171,0.6226,0.6299,0.6314,0.6327,0.633,0.6332,0.6338,0.6377,0.6383,0.6317,0.6317,0.6317,0,0,0.5604,0.5654,0.5684,0.5769,0.5811,0.5864,0.5865,0.5922,0.5962,0.5989,0.6058,0.6094,0.6155,0.6226,0.626,0.6257,0.6359,0.6336,0.6338,0.6342,0.6381,0.6387,0.6393,0.6319,0.6319,0.6319,0,0,0.565,0.5692,0.5746,0.5787,0.585,0.5883,0.5895,0.5963,0.5987,0.6057,0.6078,0.6125,0.6222,0.6264,0.6298,0.6356,0.6369,0.6373,0.6388,0.6426,0.6431,0.6436,0.6455,0.6462,0.6378,0.6378,0.6378,0,0.5654,0.5735,0.5771,0.5826,0.5863,0.5888,0.5942,0.598,0.6058,0.6082,0.6078,0.6197,0.6241,0.6321,0.6335,0.6362,0.6377,0.6365,0.6427,0.6432,0.6437,0.6456,0.6464,0.6378,0.6378,0.6378,0.6378,0,0.5737,0.5792,0.5828,0.59,0.5941,0.5995,0.6039,0.6075,0.6095,0.6128,0.6198,0.625,0.6316,0.6336,0.6357,0.642,0.6416,0.6419,0.641,0.6443,0.6461,0.6469,0.6378,0.6378,0.6378,0.6378,0,0,0.5775,0.5866,0.5878,0.5911,0.5981,0.6024,0.6079,0.6142,0.6171,0.6224,0.627,0.6349,0.6352,0.639,0.6415,0.6448,0.6489,0.6447,0.6449,0.6452,0.656,0.6556,0.6564,0.6498,0.6499,0.6501,0.6554,0,0.5828,0.5926,0.5959,0.604,0.6091,0.6115,0.6163,0.621,0.6242,0.629,0.6326,0.6381,0.6381,0.6404,0.6437,0.6477,0.6511,0.6473,0.6541,0.6543,0.6524,0.6574,0.6572,0.6619,0.6562,0.6563,0.6564,0,0.5903,0.5955,0.604,0.6102,0.6125,0.6167,0.6226,0.6272,0.6326,0.6347,0.6388,0.641,0.6467,0.6455,0.6534,0.6507,0.6537,0.656,0.6562,0.657,0.6555,0.6582,0.6636,0.6642,0.6576,0.6575,0.6574,0,0.5921,0.6012,0.6075,0.6102,0.6176,0.6204,0.6237,0.629,0.6324,0.6376,0.6399,0.6457,0.6489,0.6533,0.6569,0.6557,0.6644,0.6635,0.6662,0.6661,0.668,0.6678,0.6738,0.67,0.6699,0.6699,0.6699,0,0.5976,0.6027,0.6083,0.6122,0.6179,0.6217,0.6273,0.6306,0.6353,0.6398,0.6422,0.6464,0.651,0.6557,0.6586,0.6646,0.666,0.6678,0.6685,0.6676,0.6673,0.6695,0.6693,0.6701,0.6701,0.67,0.67,0,0.6006,0.6045,0.6115,0.6178,0.6195,0.6235,0.6289,0.6327,0.6359,0.6416,0.6431,0.6482,0.6539,0.6579,0.6653,0.6672,0.6736,0.6744,0.6718,0.6721,0.6745,0.6742,0.6821,0.6833,0.6787,0.6788,0.6788,0,0.6038,0.6078,0.6145,0.6176,0.6208,0.6259,0.6294,0.6332,0.6367,0.6431,0.6461,0.6519,0.6567,0.6657,0.67,0.6756,0.6764,0.6788,0.6773,0.6761,0.6763,0.676,0.6764,0.679,0.6791,0.6791,0.6791,0,0.6091,0.6108,0.6157,0.6213,0.6254,0.63,0.6347,0.6371,0.6417,0.6456,0.6514,0.6551,0.6625,0.6682,0.6742,0.6775,0.679,0.6795,0.6804,0.6795,0.6778,0.6786,0.6723,0.6793,0.6793,0.6793,0.6793,0.6793,0.6122,0.6158,0.621,0.6264,0.6302,0.6345,0.6383,0.6419,0.6468,0.653,0.655,0.6609,0.666,0.6742,0.6775,0.6822,0.6821,0.6834,0.6838,0.684,0.6839,0.677,0.6833,0.6833,0.6833,0.6833,0.6833,0,0.6175,0.6209,0.6259,0.6322,0.6364,0.6374,0.6425,0.646,0.6511,0.6558,0.6604,0.667,0.6725,0.6771,0.6828,0.6856,0.6865,0.687,0.6868,0.6875,0.6837,0.6823,0.6862,0.6862,0.6862,0.6862,0.6862,0.6862,0.6208,0.6268,0.6291,0.637,0.6404,0.6462,0.649,0.6528,0.6565,0.6637,0.6682,0.6712,0.6758,0.6818,0.6868,0.6881,0.69,0.6903,0.6917,0.6881,0.6878,0.6874,0.6861,0.6907,0.6907,0.695,0.695,0.6951]},{"header":{"parameterUnit":"m.s-1","parameterCategory":1,"la1":30.2991,"la2":30.254,"lo1":-89.0895,"lo2":-89.0444,"dy":0.0017,"dx":0.0017,"nx":28,"ny":28,"refTime":"2024-10-22T03:00:00:Z","depth":0,"parameterNumber":3,"parameterNumberName":"V-component_of_WINDS"},"data":[0,0,0,0,0,0,0,0,0,0,0,0,0,0,0,0,0,0,0,0,0,0,0,0,0,0,0,0,0,0,0,0,0,0,0,0,0,0,0,0,0,0,0,0,0,0,0,0,0,0,0,0,0,0,0,0,0,0,1.4263,1.4264,0,1.4299,1.43,1.43,1.4294,1.4294,1.4293,1.4292,1.4329,1.433,1.4332,0,0,0,0,0,0,0,0,0,0,0,0,0,1.4185,1.4187,1.4263,1.4264,1.4264,1.4299,1.43,1.43,1.4294,1.4294,1.4293,1.4292,1.4328,1.433,1.4332,0,0,0,0,0,0,0,0,0,0,0,0,0,1.422,1.4187,1.4263,1.4265,1.4266,1.4299,1.43,1.43,1.4294,1.4294,1.4293,1.4292,1.4328,1.433,1.4332,1.4365,0,0,1.4339,1.434,0,0,0,0,0,0,0,0,1.4218,1.4223,1.4265,1.4265,1.4266,1.4291,1.4286,1.4322,1.4295,1.4284,1.4292,1.4291,1.4317,1.432,1.4329,1.4367,1.4368,1.4339,1.4341,1.4342,1.4342,0,0,0,0,0,0,0,1.4216,1.4221,1.4277,1.4265,1.4266,1.4263,1.4267,1.4292,1.4305,1.4285,1.4284,1.4289,1.4317,1.4327,1.433,1.4369,1.4339,1.4341,1.4343,1.4344,1.4431,1.4432,0,0,0,0,0,0,1.4213,1.4219,1.4276,1.4279,1.4239,1.4265,1.427,1.4284,1.4305,1.4307,1.4289,1.4288,1.4323,1.4327,1.4331,1.4368,1.4342,1.4344,1.4345,1.443,1.4431,1.4432,0,0,0,0,0,0,1.4211,1.4218,1.4275,1.4249,1.4256,1.4268,1.4284,1.4285,1.4295,1.4308,1.431,1.4297,1.4323,1.4328,1.4356,1.4369,1.4345,1.4347,1.4429,1.443,1.4432,1.4444,0,0,0,0,0,0,1.4209,1.4217,1.4231,1.4249,1.4257,1.43,1.4285,1.4287,1.4299,1.4298,1.4316,1.4318,1.4322,1.4352,1.4358,1.4372,1.4349,1.4428,1.443,1.4431,1.4443,1.4446,1.4449,0,0,0,0,0,1.4206,1.4234,1.4232,1.4239,1.4275,1.4301,1.4306,1.431,1.43,1.4313,1.4321,1.4318,1.4367,1.4355,1.4362,1.4377,1.4427,1.4429,1.4431,1.4441,1.4445,1.4449,0,0,0,0,0,0,1.4219,1.4237,1.4235,1.427,1.4284,1.43,1.4317,1.4315,1.4332,1.433,1.4334,1.4338,1.4366,1.4374,1.4361,1.4407,1.4395,1.4399,1.4401,1.4405,1.4408,1.4405,1.4351,0,0,0,0,0,1.4226,1.4246,1.426,1.429,1.4297,1.4305,1.4317,1.4319,1.4334,1.434,1.435,1.4364,1.4382,1.4394,1.4412,1.4444,1.4446,1.4457,1.446,1.4462,1.4465,1.4478,1.4482,1.4439,1.4439,1.4439,0,0,1.424,1.4252,1.4265,1.4292,1.4304,1.4323,1.4311,1.4333,1.4347,1.4343,1.4369,1.4377,1.4392,1.4421,1.4435,1.4429,1.4477,1.4465,1.4467,1.4468,1.4481,1.4485,1.4489,1.444,1.444,1.444,0,0,1.4276,1.4288,1.4312,1.4323,1.4339,1.4344,1.4349,1.4365,1.437,1.4396,1.4393,1.4409,1.4441,1.4451,1.446,1.4495,1.4491,1.45,1.4516,1.4529,1.4532,1.4535,1.4545,1.4549,1.4503,1.4503,1.4503,0,1.4291,1.4321,1.4325,1.4346,1.4356,1.4352,1.4375,1.4385,1.4407,1.4413,1.4407,1.4444,1.4455,1.4484,1.4492,1.4501,1.4505,1.4498,1.4532,1.4535,1.4538,1.4547,1.4551,1.4504,1.4504,1.4504,1.4504,0,1.4338,1.4358,1.4375,1.4394,1.4407,1.4429,1.4434,1.4446,1.4445,1.445,1.4475,1.4487,1.4505,1.4513,1.4513,1.4541,1.4537,1.4531,1.4519,1.4542,1.4551,1.4555,1.4505,1.4505,1.4505,1.4504,0,0,1.4384,1.4402,1.4408,1.4415,1.4431,1.4446,1.4466,1.4484,1.4492,1.4507,1.4522,1.4547,1.4541,1.4551,1.4553,1.4564,1.4587,1.4557,1.4557,1.456,1.4615,1.4618,1.4622,1.4585,1.4585,1.4586,1.4612,0,1.4419,1.4455,1.4457,1.4488,1.4505,1.45,1.4517,1.4528,1.4532,1.4546,1.4551,1.4567,1.4559,1.4565,1.4576,1.4582,1.4598,1.458,1.4597,1.4598,1.4592,1.4627,1.4631,1.4656,1.4616,1.4617,1.4617,0,1.4466,1.4479,1.4512,1.4521,1.4529,1.4544,1.4558,1.4572,1.4583,1.4585,1.4594,1.4593,1.4611,1.4599,1.4623,1.461,1.4617,1.462,1.4621,1.4622,1.4608,1.4627,1.4664,1.4667,1.4623,1.4623,1.4622,0,1.4492,1.4519,1.4541,1.4547,1.456,1.457,1.4576,1.4586,1.4595,1.4607,1.4612,1.4626,1.4633,1.4643,1.4645,1.4636,1.4668,1.4656,1.4668,1.4668,1.4675,1.4674,1.4712,1.4682,1.4682,1.4682,1.4682,0,1.453,1.455,1.4552,1.4566,1.4587,1.4587,1.4608,1.4613,1.4621,1.4634,1.4631,1.4643,1.4645,1.4657,1.4658,1.4676,1.468,1.468,1.468,1.468,1.468,1.4684,1.4682,1.4683,1.4682,1.4682,1.4682,0,1.4563,1.4566,1.4589,1.4598,1.4601,1.4616,1.4623,1.4635,1.4638,1.4654,1.4658,1.4662,1.4676,1.4678,1.4695,1.4695,1.4716,1.4715,1.4712,1.4711,1.4723,1.4721,1.4763,1.4768,1.4736,1.4737,1.4737,0,1.4587,1.4601,1.4611,1.4619,1.4624,1.4638,1.4646,1.4647,1.4655,1.4666,1.4676,1.4689,1.47,1.4722,1.4726,1.4737,1.4736,1.4749,1.4737,1.4735,1.4733,1.4732,1.4732,1.4752,1.4752,1.4752,1.4752,0,1.4626,1.4626,1.4638,1.465,1.4659,1.4669,1.4678,1.4684,1.4685,1.4695,1.4708,1.4716,1.4731,1.4744,1.4755,1.4759,1.4755,1.4756,1.4759,1.4758,1.4755,1.4755,1.4717,1.4755,1.4755,1.4755,1.4755,1.4754,1.4654,1.4665,1.4672,1.4685,1.4691,1.4698,1.4709,1.4712,1.4723,1.4735,1.4735,1.4749,1.4756,1.477,1.4775,1.4785,1.478,1.4785,1.4786,1.4787,1.4787,1.4754,1.4787,1.4787,1.4787,1.4787,1.4787,0,1.4691,1.4694,1.4706,1.4717,1.4726,1.4721,1.473,1.4737,1.475,1.4757,1.4766,1.478,1.4791,1.4795,1.4805,1.4812,1.481,1.4814,1.4813,1.4814,1.4792,1.4787,1.4815,1.4815,1.4815,1.4815,1.4815,1.4815,1.4711,1.4729,1.4729,1.4748,1.4752,1.4765,1.477,1.4776,1.4781,1.4796,1.4805,1.4807,1.4812,1.4822,1.4831,1.4832,1.4835,1.484,1.484,1.4819,1.4816,1.4813,1.4809,1.4841,1.4841,1.4861,1.4861,1.4861]}]]